Norman, OK

11:34 AM CST on December 16, 2017 (GMT -0600)
Univ. Of Oklahoma Westheimer

Weather History for KOUN - November, 2013

Change the Weather History Date:

Saturday, November 16, 2013

  Actual Average Record
Temperature  
Mean Temperature 65 °F -  
Max Temperature 75 °F 61 °F 82 °F (1952)
Min Temperature 55 °F 39 °F 12 °F (1955)
Growing Degree Days 15 (Base 50)    
Moisture  
Dew Point 58 °F    
Average Humidity 81    
Maximum Humidity 100    
Minimum Humidity 57    
Precipitation  
Precipitation 0.01 in - - ()
Sea Level Pressure  
Sea Level Pressure 29.66 in    
Wind  
Wind Speed 16 mph (South)    
Max Wind Speed 23 mph    
Max Gust Speed 31 mph    
Visibility 10 miles    
Events Rain    
Averages and records for this station are not official NWS values.
T = Trace of Precipitation, MM = Missing Value Source: NWS Daily Summary

Daily Weather History Graph

Daily Weather History Graph

Search for Another Location

Airport or City:

Trip Planner

Search our weather history database for the weather conditions in past years. The results will help you decide how hot, cold, wet, or windy it might be!

Date:

Astronomy

Nov. 16, 2013 Rise Set
Actual Time 7:06 AM CST 5:22 PM CST
Civil Twilight 6:39 AM CST 5:50 PM CST
Nautical Twilight 6:08 AM CST 6:20 PM CST
Astronomical Twilight 5:38 AM CST 6:50 PM CST
Moon 4:57 PM CST 6:05 AM CST
Length of Visible Light 11h 11m
Length of Day
10h 16m
Waxing Gibbous, 99% of the Moon is Illuminated
Nov 16
Waxing Gibbous
Nov 17
Full
Nov 25
Last Quarter
Dec 2
New
Dec 9
First Quarter

Hourly Weather History & Observations

Time (CST) Temp. Dew Point Humidity Pressure Visibility Wind Dir Wind Speed Gust Speed Precip Events Conditions
12:15 AM 55.4 °F 55.4 °F 100% 29.77 in 10.0 mi SSE 13.8 mph 20.7 mph N/A   Clear
12:35 AM 55.4 °F 55.4 °F 100% 29.76 in 10.0 mi SSE 12.7 mph - N/A   Clear
12:55 AM 55.4 °F 55.4 °F 100% 29.75 in 10.0 mi SSE 13.8 mph 21.9 mph N/A   Clear
1:15 AM 57.2 °F 55.4 °F 94% 29.75 in 10.0 mi SSE 16.1 mph 21.9 mph N/A   Clear
1:35 AM 57.2 °F 55.4 °F 94% 29.75 in 10.0 mi SSE 16.1 mph 20.7 mph N/A   Clear
1:55 AM 57.2 °F 55.4 °F 94% 29.74 in 10.0 mi SSE 15.0 mph 21.9 mph N/A   Clear
2:15 AM 57.2 °F 55.4 °F 94% 29.73 in 10.0 mi SSE 15.0 mph 21.9 mph N/A   Clear
2:35 AM 57.2 °F 55.4 °F 94% 29.73 in 10.0 mi SSE 17.3 mph 25.3 mph N/A   Clear
2:55 AM 57.2 °F 55.4 °F 94% 29.72 in 10.0 mi SSE 16.1 mph - N/A   Clear
3:15 AM 57.2 °F 55.4 °F 94% 29.72 in 10.0 mi SSE 15.0 mph 21.9 mph N/A   Clear
3:35 AM 57.2 °F 55.4 °F 94% 29.73 in 10.0 mi South 10.4 mph 16.1 mph N/A   Clear
3:55 AM 59.0 °F 55.4 °F 88% 29.72 in 10.0 mi SSE 16.1 mph 23.0 mph N/A   Clear
4:15 AM 59.0 °F 55.4 °F 88% 29.72 in 10.0 mi South 17.3 mph 23.0 mph N/A   Clear
4:35 AM 59.0 °F 55.4 °F 88% 29.71 in 10.0 mi SSE 15.0 mph 19.6 mph N/A   Clear
4:55 AM 59.0 °F 55.4 °F 88% 29.72 in 10.0 mi South 11.5 mph - N/A   Clear
5:15 AM 59.0 °F 55.4 °F 88% 29.71 in 10.0 mi South 17.3 mph 20.7 mph N/A   Mostly Cloudy
5:35 AM 59.0 °F 55.4 °F 88% 29.71 in 10.0 mi South 18.4 mph 26.5 mph N/A   Overcast
5:55 AM 59.0 °F 55.4 °F 88% 29.70 in 10.0 mi South 18.4 mph 23.0 mph N/A   Overcast
6:15 AM 59.0 °F 55.4 °F 88% 29.70 in 10.0 mi South 15.0 mph 19.6 mph N/A   Mostly Cloudy
6:35 AM 60.8 °F 55.4 °F 82% 29.72 in 10.0 mi South 15.0 mph 21.9 mph N/A   Mostly Cloudy
6:55 AM 60.8 °F 55.4 °F 82% 29.74 in 10.0 mi South 18.4 mph 24.2 mph N/A Rain Light Rain
7:15 AM 59.0 °F 55.4 °F 88% 29.72 in 10.0 mi South 19.6 mph 26.5 mph N/A   Light Drizzle
7:35 AM 59.0 °F 55.4 °F 88% 29.72 in 10.0 mi South 16.1 mph 26.5 mph N/A   Mostly Cloudy
7:55 AM 59.0 °F 55.4 °F 88% 29.73 in 10.0 mi South 20.7 mph 26.5 mph N/A   Mostly Cloudy
8:15 AM 59.0 °F 57.2 °F 94% 29.73 in 10.0 mi South 19.6 mph 27.6 mph 0.01 in Rain Light Rain
8:35 AM 59.0 °F 57.2 °F 94% 29.72 in 10.0 mi South 15.0 mph 24.2 mph 0.01 in   Overcast
8:55 AM 59.0 °F 57.2 °F 94% 29.72 in 10.0 mi SSE 13.8 mph 19.6 mph 0.01 in   Scattered Clouds
9:15 AM 60.8 °F 57.2 °F 88% 29.70 in 10.0 mi SSE 16.1 mph 21.9 mph N/A   Clear
9:35 AM 60.8 °F 57.2 °F 88% 29.71 in 10.0 mi South 20.7 mph 25.3 mph N/A   Scattered Clouds
9:55 AM 64.4 °F 59.0 °F 83% 29.71 in 10.0 mi South 21.9 mph 29.9 mph N/A   Clear
10:15 AM 64.4 °F 59.0 °F 83% 29.71 in 10.0 mi South 21.9 mph 26.5 mph N/A   Clear
10:35 AM 64.4 °F 59.0 °F 83% 29.71 in 10.0 mi South 23.0 mph 31.1 mph N/A   Clear
1:55 PM 71.6 °F 57.2 °F 60% 29.60 in 10.0 mi South 17.3 mph 28.8 mph N/A   Unknown
2:15 PM 71.6 °F 57.2 °F 60% 29.59 in 10.0 mi South 17.3 mph 26.5 mph N/A   Unknown
2:35 PM 71.6 °F 57.2 °F 60% 29.58 in 10.0 mi South 21.9 mph 27.6 mph N/A   Unknown
2:55 PM 73.4 °F 57.2 °F 57% 29.58 in 10.0 mi South 20.7 mph 29.9 mph N/A   Unknown
3:15 PM 73.4 °F 57.2 °F 57% 29.57 in 10.0 mi South 12.7 mph 23.0 mph N/A   Unknown
3:35 PM 73.4 °F 57.2 °F 57% 29.56 in 10.0 mi SSE 16.1 mph 24.2 mph N/A   Unknown
3:55 PM 75.2 °F 59.0 °F 57% 29.56 in 10.0 mi South 19.6 mph 25.3 mph N/A   Unknown
4:15 PM 73.4 °F 59.0 °F 61% 29.57 in 10.0 mi South 18.4 mph 29.9 mph N/A   Scattered Clouds
4:35 PM 71.6 °F 59.0 °F 64% 29.58 in 10.0 mi South 16.1 mph 25.3 mph N/A   Clear
4:55 PM 71.6 °F 59.0 °F 64% 29.58 in 10.0 mi SSE 17.3 mph 24.2 mph N/A   Clear
5:15 PM 69.8 °F 59.0 °F 68% 29.58 in 10.0 mi South 17.3 mph 21.9 mph N/A   Clear
5:35 PM 69.8 °F 57.2 °F 64% 29.57 in 10.0 mi SSE 16.1 mph 23.0 mph N/A   Clear
5:55 PM 69.8 °F 57.2 °F 64% 29.57 in 10.0 mi SSE 16.1 mph 23.0 mph N/A   Clear
6:15 PM 68.0 °F 57.2 °F 68% 29.58 in 10.0 mi SSE 18.4 mph 23.0 mph N/A   Clear
6:35 PM 68.0 °F 59.0 °F 73% 29.58 in 10.0 mi SSE 16.1 mph - N/A   Clear
6:55 PM 68.0 °F 59.0 °F 73% 29.58 in 10.0 mi SSE 17.3 mph 24.2 mph N/A   Clear
7:15 PM 66.2 °F 59.0 °F 78% 29.58 in 10.0 mi SSE 20.7 mph 24.2 mph N/A   Clear
7:35 PM 66.2 °F 60.8 °F 83% 29.58 in 10.0 mi South 17.3 mph 24.2 mph N/A   Clear
7:55 PM 66.2 °F 60.8 °F 83% 29.58 in 10.0 mi South 15.0 mph 26.5 mph N/A   Clear
8:15 PM 66.2 °F 60.8 °F 83% 29.58 in 10.0 mi SSE 18.4 mph 27.6 mph N/A   Clear
8:35 PM 66.2 °F 60.8 °F 83% 29.58 in 10.0 mi South 17.3 mph 25.3 mph N/A   Clear
8:55 PM 66.2 °F 60.8 °F 83% 29.59 in 10.0 mi South 18.4 mph 25.3 mph N/A   Clear
9:15 PM 66.2 °F 60.8 °F 83% 29.59 in 10.0 mi South 16.1 mph 25.3 mph N/A   Clear
9:35 PM 66.2 °F 60.8 °F 83% 29.59 in 10.0 mi South 13.8 mph 24.2 mph N/A   Clear
9:55 PM 66.2 °F 60.8 °F 83% 29.60 in 10.0 mi South 13.8 mph - N/A   Clear
10:15 PM 68.0 °F 60.8 °F 78% 29.60 in 10.0 mi South 17.3 mph 25.3 mph N/A   Clear
10:35 PM 68.0 °F 60.8 °F 78% 29.60 in 10.0 mi South 17.3 mph 23.0 mph N/A   Clear
10:55 PM 68.0 °F 60.8 °F 78% 29.60 in 10.0 mi South 17.3 mph 26.5 mph N/A   Clear
11:15 PM 66.2 °F 60.8 °F 83% 29.61 in 10.0 mi South 18.4 mph 25.3 mph N/A   Clear
11:35 PM 66.2 °F 60.8 °F 83% 29.61 in 10.0 mi South 20.7 mph 24.2 mph N/A   Clear
11:55 PM 66.2 °F 60.8 °F 83% 29.60 in 10.0 mi South 19.6 mph 25.3 mph N/A   Unknown